Weather History for Olympia, WA

Change the Weather History Date:

Thursday, August 22, 2013

  Actual Average Record
Temperature  
Mean Temperature 67 °F 64 °F  
Max Temperature 84 °F 77 °F 90 °F (1956)
Min Temperature 49 °F 50 °F 38 °F (1960)
Degree Days  
Heating Degree Days 0 2  
Month to date heating degree days 12 44  
Since 1 June heating degree days 205 312  
Since 1 July heating degree days 69 124  
Cooling Degree Days 2 1  
Month to date cooling degree days 36 38  
Year to date cooling degree days 100 95  
Since 1 June cooling degree days 98 92  
Growing Degree Days 16 (Base 50)    
Moisture  
Dew Point 52 °F    
Average Humidity 63    
Maximum Humidity 93    
Minimum Humidity 33    
Precipitation  
Precipitation 0.00 in 0.03 in 1.24 in (2001)
Month to date precipitation 0.28 0.54  
Year to date precipitation 21.70 27.20  
Sea Level Pressure  
Sea Level Pressure 29.89 in    
Wind  
Wind Speed 5 mph (WNW)    
Max Wind Speed 12 mph    
Max Gust Speed 14 mph    
Visibility 10 miles    
Events      
T = Trace of Precipitation, MM = Missing Value Source: NWS Daily Summary

Daily Weather History Graph

Daily Weather History Graph

Search for Another Location

Airport:

Trip Planner

Search our weather history database for the weather conditions in past years. The results will help you decide how hot, cold, wet, or windy it might be!

Date:

Astronomy

Aug. 22, 2013 Rise Set
Actual Time 6:18 AM PDT 8:09 PM PDT
Civil Twilight 5:45 AM PDT 8:41 PM PDT
Nautical Twilight 5:06 AM PDT 9:21 PM PDT
Astronomical Twilight 4:22 AM PDT 10:04 PM PDT
Moon 8:43 PM PDT (8/22) 8:24 AM PDT (8/22)
Length of Visible Light 14h 55m
Length of Day
13h 50m
Waning Gibbous, 96% of the Moon is Illuminated
Aug 22
Waning Gibbous
Aug 28
Last Quarter
Sep 5
New
Sep 12
First Quarter
Sep 19
Full

Hourly Weather History & Observations

Time (PDT) Temp. Heat Index Dew Point Humidity Pressure Visibility Wind Dir Wind Speed Gust Speed Precip Events Conditions
12:54 AM 55.9 °F - 48.0 °F 75% 29.95 in 10.0 mi Calm Calm - N/A   Clear
1:54 AM 55.0 °F - 48.9 °F 80% 29.94 in 10.0 mi Calm Calm - N/A   Clear
2:54 AM 52.0 °F - 48.0 °F 86% 29.94 in 10.0 mi Calm Calm - N/A   Clear
3:54 AM 52.0 °F - 48.9 °F 89% 29.94 in 10.0 mi Calm Calm - N/A   Clear
4:54 AM 50.0 °F - 48.0 °F 93% 29.93 in 10.0 mi Calm Calm - N/A   Clear
5:54 AM 52.0 °F - 48.0 °F 86% 29.93 in 10.0 mi Calm Calm - N/A   Clear
6:54 AM 51.1 °F - 48.9 °F 92% 29.92 in 10.0 mi Calm Calm - N/A   Clear
7:54 AM 60.1 °F - 54.0 °F 80% 29.93 in 10.0 mi NNE 4.6 mph - N/A   Clear
8:54 AM 64.9 °F - 53.1 °F 65% 29.93 in 10.0 mi NNE 4.6 mph - N/A   Clear
9:54 AM 69.1 °F - 51.1 °F 53% 29.92 in 10.0 mi NNW 4.6 mph - N/A   Clear
10:54 AM 70.0 °F - 52.0 °F 53% 29.92 in 10.0 mi North 5.8 mph - N/A   Clear
11:54 AM 73.0 °F - 53.1 °F 49% 29.91 in 10.0 mi Variable 5.8 mph - N/A   Clear
12:54 PM 75.9 °F - 51.1 °F 42% 29.89 in 10.0 mi NNE 6.9 mph - N/A   Clear
1:54 PM 79.0 °F - 53.1 °F 40% 29.88 in 10.0 mi NW 4.6 mph - N/A   Clear
2:54 PM 81.0 °F - 52.0 °F 36% 29.87 in 10.0 mi North 5.8 mph - N/A   Clear
3:54 PM 81.0 °F - 51.1 °F 35% 29.84 in 10.0 mi North 5.8 mph - N/A   Clear
4:54 PM 82.0 °F - 50.0 °F 33% 29.83 in 10.0 mi East 5.8 mph - N/A   Clear
5:54 PM 81.0 °F - 52.0 °F 36% 29.83 in 10.0 mi SSW 5.8 mph - N/A   Clear
6:54 PM 80.1 °F 80.0 °F 54.0 °F 40% 29.83 in 10.0 mi SSW 4.6 mph - N/A   Clear
7:54 PM 75.9 °F - 55.9 °F 50% 29.83 in 10.0 mi WSW 4.6 mph - N/A   Clear
8:54 PM 72.0 °F - 54.0 °F 53% 29.84 in 10.0 mi SSW 5.8 mph - N/A   Clear
9:54 PM 70.0 °F - 53.1 °F 55% 29.85 in 10.0 mi SSW 9.2 mph - N/A   Clear
10:54 PM 64.9 °F - 54.0 °F 68% 29.85 in 10.0 mi SSW 6.9 mph - N/A   Clear
11:54 PM 63.0 °F - 55.0 °F 75% 29.86 in 10.0 mi SSW 10.4 mph - N/A   Clear